Ewell, United Kingdom
Current Conditions -  °F | °C
As of 8:20 AM on Thursday 29 Jan 2015 (Local Time) from EGKB Reporting Station
Few Clouds Few Clouds  
Wind Chill: 25°   Ceiling: Unl
Heat Index: 34°   Visibility: 6mi
Dew Point: 28°   Wind: 12mph
Humidity: 81%   Direction: 230°SW
Pressure: 29.21"   Gusts: NA
Location:  51.35°N, 0.25°W
Report Text: EGKB 290820Z 23010KT 200V260 9999 FEW030 01/M02 Q0989
Loading
Personal Weather Stations






























Interactive Weather Map New forecast layout! Learn more

10-Day Weather Forecast

Advertisements
Track Severe Weather on mobile